Regional Weather Roundup
Issued by NWS Little Rock, AR

Home | Current Version | Previous Version | Text Only | Print | Product List | Glossary Off
Versions: 1 2 3 4 5 6 7 8 9 10 11 12 13 14 15 16 17 18 19 20 21 22 23 24 25 26 27 28 29 30 31 32

000
ASUS44 KLZK 290705
RWRLZK

WEATHER ROUNDUP FOR ARKANSAS
NATIONAL WEATHER SERVICE LITTLE ROCK AR
200 AM CDT MON MAY 29 2017

NOTE: "FAIR" INDICATES FEW OR NO CLOUDS BELOW 12,000 FEET WITH NO
SIGNIFICANT WEATHER AND/OR OBSTRUCTIONS TO VISIBILITY.

ARZ001-003-010-029-290800-
NORTHWEST ARKANSAS

CITY           SKY/WX    TMP DP  RH WIND       PRES   REMARKS
FAYETTEVILLE   CLOUDY    55  55 100 S6        30.04R
FORT SMITH     CLOUDY    65  59  81 CALM      30.01R
HARRISON       CLOUDY    59  56  89 CALM      30.02R
BENTONVILLE    CLEAR     61  55  82 CALM      30.04R
ROGERS         CLOUDY    62  56  80 SW5       30.04R
SILOAM SPGS    CLEAR     57  52  82 S5        30.03R
HIGHFILL       CLEAR     61  56  83 SW5       30.03R
$$

ARZ004-005-016-290800-
NORTH CENTRAL ARKANSAS

CITY           SKY/WX    TMP DP  RH WIND       PRES   REMARKS
BATESVILLE     CLOUDY    63  61  94 CALM      29.99S
FLIPPIN        CLOUDY    61  54  77 CALM      29.98R
MTN HOME       CLOUDY    61  57  87 SW3       30.00R
$$

ARZ040-041-290800-
WEST CENTRAL ARKANSAS

CITY           SKY/WX    TMP DP  RH WIND       PRES   REMARKS
MENA           CLOUDY    63  61  94 CALM      30.03S
MOUNT IDA      MOCLDY    64  64 100 CALM      29.99S
$$

ARZ009-017-025-026-028-290800-
NORTHEAST ARKANSAS

CITY           SKY/WX    TMP DP  RH WIND       PRES   REMARKS
JONESBORO      MOCLDY    64  62  93 CALM      29.96R
NEWPORT        CLOUDY    67  64  90 W5        29.97S
WALNUT RIDGE   CLOUDY    64  59  82 SW6       29.96F
BLYTHEVILLE    CLOUDY    69  65  86 W3        29.96R
$$

ARZ022-023-033-042-044-290800-
CENTRAL ARKANSAS

CITY           SKY/WX    TMP DP  RH WIND       PRES   REMARKS
LITTLE ROCK    CLOUDY    69  64  84 NW6       29.98S
N LITTLE ROCK    N/A     70  62  78 N3        29.98S
JACKSONVILLE   CLOUDY    68  67  98 SW3       29.98R
CONWAY           N/A     68  66  94 CALM      29.98R
SEARCY         CLOUDY    66  64  93 NW3       29.99S
HOT SPRINGS    CLOUDY    69  68  96 NW5       30.00R
RUSSELLVILLE   CLOUDY    63  61  93 CALM      30.00R
CLINTON        FAIR      59  59 100 CALM      30.01S
$$

ARZ036-290800-
EAST ARKANSAS

CITY           SKY/WX    TMP DP  RH WIND       PRES   REMARKS
WEST MEMPHIS   CLOUDY    71  71 100 CALM      29.94S
$$

ARZ050-053-066-070-073-290800-
SOUTHWEST ARKANSAS

CITY           SKY/WX    TMP DP  RH WIND       PRES   REMARKS
ARKADELPHIA    CLOUDY    72  70  93 N3        29.98S
CAMDEN         CLOUDY    72  68  88 S3        29.97S
TEXARKANA      CLOUDY    70  70 100 SW3       30.00S
EL DORADO      CLOUDY    68  66  93 SW7       30.01R
DE QUEEN       FOG       66  66 100 CALM      29.98F VSB 1/4
$$

ARZ056-057-069-290800-
SOUTHEAST ARKANSAS

CITY           SKY/WX    TMP DP  RH WIND       PRES   REMARKS
PINE BLUFF     LGT RAIN  73  70  90 CALM      29.96F
STUTTGART      CLOUDY    73  61  64 NW3       29.97S
MONTICELLO     CLOUDY    73  68  84 SW6       29.96F

$$






USA.gov is the U.S. government's official web portal to all federal, state and local government web resources and services.